Torna al catalogo

STARLINK-4519

AttivoComunicazioniVLEO
NORAD 53439·PAYLOAD·🇺🇸 United States

Lanciato Aug 10, 2022 da Cape Canaveral Space Force Station

Loading…

Prossimi Passaggi (prossime 24 ore)

TLE

AggiornatoSource: CelesTrak SupGP

Epoca: Sep 15, 2026, 02:12 UTC

1 53439C 22097BD  26258.09215278  .00041191  00000+0  12170-2 0  2587
2 53439  53.1590 318.6990 0001275  79.4340 301.8858 15.34370088    10

Traccia STARLINK-4519 in tempo reale con AllMySat

Download on the App Store